| time (UTC) | temp F | wind direction | speed knots | gust knots | rain 1hr in | rain 24hr in | rain mn in | humidity % | barometer mb |
| 20260906210830 | 86 | 57 | 0.0 | 0.0 | 0.00 | 0.01 | 0.01 | 53 | 1010.4 |
| 20260906210330 | 87 | 71 | 0.0 | 0.0 | 0.00 | 0.01 | 0.01 | 51 | 1010.4 |
| 20260906205826 | 88 | 88 | 0.0 | 0.0 | 0.00 | 0.01 | 0.01 | 51 | 1010.4 |
| 20260906205343 | 89 | 61 | 0.0 | 0.0 | 0.00 | 0.01 | 0.01 | 48 | 1010.4 |
| 20260906204822 | 89 | 53 | 0.0 | 0.0 | 0.00 | 0.01 | 0.01 | 49 | 1010.4 |
| 20260906204344 | 89 | 57 | 0.0 | 0.0 | 0.00 | 0.01 | 0.01 | 43 | 1010.4 |
| 20260906203833 | 88 | 106 | 0.0 | 0.0 | 0.00 | 0.01 | 0.01 | 44 | 1010.6 |
| 20260906203329 | 87 | 102 | 0.0 | 0.0 | 0.00 | 0.01 | 0.01 | 49 | 1011.5 |
| 20260906202827 | 86 | 58 | 0.0 | 0.0 | 0.00 | 0.01 | 0.01 | 57 | 1011.5 |
| 20260906202325 | 85 | 76 | 0.0 | 0.0 | 0.00 | 0.01 | 0.01 | 57 | 1012.1 |
| 20260906201843 | 85 | 52 | 0.0 | 0.0 | 0.00 | 0.01 | 0.01 | 59 | 1012.1 |
| 20260906201319 | 84 | 71 | 0.0 | 0.0 | 0.00 | 0.01 | 0.01 | 59 | 1012.1 |
| 20260906200835 | 84 | 61 | 0.0 | 0.0 | 0.00 | 0.01 | 0.01 | 58 | 1012.5 |
| 20260906200353 | 84 | 65 | 0.0 | 0.0 | 0.00 | 0.01 | 0.01 | 59 | 1012.5 |
| 20260906195830 | 85 | 59 | 0.0 | 0.0 | 0.00 | 0.01 | 0.01 | 59 | 1012.5 |
| 20260906195324 | 84 | 106 | 0.0 | 0.0 | 0.00 | 0.01 | 0.01 | 60 | 1012.9 |
| 20260906194824 | 84 | 73 | 0.0 | 0.0 | 0.00 | 0.01 | 0.01 | 60 | 1012.9 |
| 20260906194322 | 84 | 71 | 0.0 | 0.0 | 0.00 | 0.01 | 0.01 | 61 | 1012.9 |
| 20260906193840 | 83 | 113 | 0.0 | 0.0 | 0.00 | 0.01 | 0.01 | 65 | 1012.9 |
| 20260906193334 | 82 | 70 | 0.0 | 0.0 | 0.00 | 0.01 | 0.01 | 68 | 1013.4 |
| 20260906192833 | 81 | 65 | 0.0 | 0.0 | 0.00 | 0.01 | 0.01 | 71 | 1013.4 |
| 20260906192329 | 80 | 66 | 0.0 | 0.0 | 0.00 | 0.01 | 0.01 | 71 | 1013.5 |
| 20260906191846 | 81 | 53 | 0.0 | 0.0 | 0.00 | 0.01 | 0.01 | 67 | 1013.5 |
| 20260906191343 | 82 | 73 | 0.0 | 0.0 | 0.00 | 0.01 | 0.01 | 65 | 1013.5 |
| 20260906190835 | 83 | 55 | 0.0 | 13.0 | 0.00 | 0.01 | 0.01 | 62 | 1012.8 |
| 20260906190353 | 83 | 40 | 0.0 | 18.2 | 0.00 | 0.01 | 0.01 | 66 | 1012.8 |
| 20260906185829 | 83 | 38 | 13.0 | 18.2 | 0.00 | 0.01 | 0.01 | 67 | 1012.8 |
| 20260906185327 | 82 | 31 | 12.2 | 17.4 | 0.00 | 0.01 | 0.01 | 68 | 1011.8 |
| 20260906184823 | 82 | 57 | 11.3 | 19.1 | 0.00 | 0.01 | 0.01 | 69 | 1011.8 |
| 20260906184322 | 82 | 27 | 13.0 | 19.1 | 0.00 | 0.01 | 0.01 | 68 | 1011.8 |
| 20260906183844 | 81 | 28 | 0.0 | 19.1 | 0.00 | 0.01 | 0.01 | 70 | 1012.6 |
| 20260906183322 | 80 | 15 | 0.0 | 19.1 | 0.00 | 0.01 | 0.01 | 70 | 1012.6 |
| 20260906182839 | 80 | 34 | 13.9 | 20.0 | 0.00 | 0.01 | 0.01 | 72 | 1012.6 |
| 20260906182336 | 79 | 26 | 12.2 | 20.0 | 0.00 | 0.01 | 0.01 | 72 | 1013.0 |
| 20260906181833 | 78 | 24 | 13.9 | 17.4 | 0.00 | 0.01 | 0.01 | 72 | 1013.0 |
| 20260906181331 | 78 | 22 | 0.0 | 0.0 | 0.00 | 0.01 | 0.01 | 72 | 1013.0 |
| 20260906180830 | 79 | 14 | 0.0 | 0.0 | 0.00 | 0.01 | 0.01 | 71 | 1013.4 |
| 20260906180347 | 79 | 5 | 0.0 | 0.0 | 0.00 | 0.01 | 0.01 | 71 | 1013.4 |
| 20260906175824 | 79 | 32 | 0.0 | 0.0 | 0.00 | 0.01 | 0.01 | 73 | 1013.4 |
| 20260906175320 | 80 | 34 | 0.0 | 0.0 | 0.00 | 0.01 | 0.01 | 72 | 1013.8 |
| 20260906174820 | 79 | 21 | 0.0 | 0.0 | 0.00 | 0.01 | 0.01 | 72 | 1013.8 |
| 20260906174357 | 79 | 43 | 0.0 | 0.0 | 0.00 | 0.01 | 0.01 | 74 | 1013.8 |
| 20260906173832 | 78 | 38 | 0.0 | 0.0 | 0.00 | 0.01 | 0.01 | 77 | 1013.4 |
| 20260906173332 | 77 | 5 | 0.0 | 0.0 | 0.00 | 0.01 | 0.01 | 76 | 1013.4 |
| 20260906172830 | 76 | 360 | 0.0 | 10.4 | 0.00 | 0.01 | 0.01 | 78 | 1013.4 |
| 20260906172326 | 75 | 341 | 0.0 | 12.2 | 0.01 | 0.01 | 0.01 | 80 | 1013.7 |
| 20260906171825 | 74 | 10 | 6.1 | 13.0 | 0.01 | 0.01 | 0.01 | 81 | 1013.7 |
| 20260906171323 | 74 | 5 | 11.3 | 13.9 | 0.01 | 0.01 | 0.01 | 81 | 1013.7 |
| 20260906170823 | 74 | 346 | 9.6 | 13.9 | 0.01 | 0.01 | 0.01 | 83 | 1013.9 |
| 20260906170356 | 74 | 360 | 9.6 | 12.2 | 0.01 | 0.01 | 0.01 | 85 | 1013.9 |
| 20260906165852 | 73 | 12 | 7.8 | 10.4 | 0.01 | 0.01 | 0.01 | 86 | 1013.9 |
| 20260906165327 | 72 | 11 | 5.2 | 13.0 | 0.01 | 0.01 | 0.01 | 87 | 1014.4 |
| 20260906164826 | 72 | 5 | 9.6 | 13.0 | 0.01 | 0.01 | 0.01 | 87 | 1014.4 |
| 20260906164323 | 72 | 9 | 8.7 | 10.4 | 0.01 | 0.01 | 0.01 | 87 | 1014.4 |
| 20260906163821 | 71 | 259 | 4.3 | 8.7 | 0.01 | 0.01 | 0.01 | 87 | 1014.0 |
| 20260906163358 | 71 | 339 | 7.0 | 9.6 | 0.01 | 0.01 | 0.01 | 87 | 1014.0 |
| 20260906162834 | 71 | 272 | 4.3 | 11.3 | 0.01 | 0.01 | 0.01 | 86 | 1014.0 |
| 20260906162330 | 71 | 246 | 8.7 | 11.3 | 0.00 | 0.00 | 0.00 | 85 | 1014.3 |
| 20260906161829 | 71 | 315 | 5.2 | 9.6 | 0.00 | 0.00 | 0.00 | 84 | 1014.3 |
| 20260906161325 | 71 | 290 | 7.0 | 9.6 | 0.00 | 0.00 | 0.00 | 84 | 1014.3 |
| 20260906160825 | 71 | 263 | 4.3 | 12.2 | 0.00 | 0.00 | 0.00 | 84 | 1014.4 |
| 20260906160322 | 71 | 294 | 7.0 | 14.8 | 0.00 | 0.00 | 0.00 | 85 | 1014.4 |
| 20260906155904 | 71 | 277 | 10.4 | 19.1 | 0.00 | 0.00 | 0.00 | 84 | 1014.4 |
| 20260906155333 | 71 | 262 | 10.4 | 20.9 | 0.00 | 0.00 | 0.00 | 84 | 1013.7 |
| 20260906154830 | 73 | 259 | 15.6 | 20.9 | 0.00 | 0.00 | 0.00 | 81 | 1013.7 |
| 20260906154328 | 75 | 272 | 0.0 | 0.0 | 0.00 | 0.00 | 0.00 | 78 | 1013.7 |
| 20260906153824 | 80 | 259 | 0.0 | 0.0 | 0.00 | 0.00 | 0.00 | 74 | 1012.7 |
| 20260906153324 | 80 | 219 | 0.0 | 0.0 | 0.00 | 0.00 | 0.00 | 73 | 1012.7 |
| 20260906152822 | 80 | 196 | 0.0 | 0.0 | 0.00 | 0.00 | 0.00 | 73 | 1012.7 |
| 20260906152321 | 80 | 205 | 0.0 | 0.0 | 0.00 | 0.00 | 0.00 | 74 | 1012.8 |
| 20260906151818 | 79 | 198 | 0.0 | 0.0 | 0.00 | 0.00 | 0.00 | 75 | 1012.8 |
| 20260906151335 | 79 | 180 | 0.0 | 0.0 | 0.00 | 0.00 | 0.00 | 76 | 1012.8 |
| 20260906150832 | 78 | 169 | 0.0 | 0.0 | 0.00 | 0.00 | 0.00 | 76 | 1012.7 |
| 20260906150349 | 78 | 170 | 0.0 | 0.0 | 0.00 | 0.00 | 0.00 | 77 | 1012.7 |
| 20260906145827 | 77 | 173 | 0.0 | 0.0 | 0.00 | 0.00 | 0.00 | 79 | 1012.7 |
| 20260906145323 | 76 | 148 | 0.0 | 0.0 | 0.00 | 0.00 | 0.00 | 82 | 1013.1 |
| 20260906144820 | 75 | 126 | 0.0 | 0.0 | 0.00 | 0.00 | 0.00 | 87 | 1013.1 |
| 20260906144337 | 73 | 123 | 0.0 | 0.0 | 0.00 | 0.00 | 0.00 | 89 | 1013.1 |
| 20260906143833 | 73 | 123 | 0.0 | 0.0 | 0.00 | 0.00 | 0.00 | 90 | 1013.3 |
| 20260906143330 | 72 | 105 | 0.0 | 0.0 | 0.00 | 0.00 | 0.00 | 91 | 1013.3 |
| 20260906142828 | 72 | 69 | 0.0 | 0.0 | 0.00 | 0.00 | 0.00 | 92 | 1013.3 |
| 20260906142324 | 71 | 69 | 0.0 | 0.0 | 0.00 | 0.00 | 0.00 | 93 | 1013.4 |
| 20260906141821 | 70 | 53 | 0.0 | 0.0 | 0.00 | 0.00 | 0.00 | 94 | 1013.4 |
| 20260906141318 | 70 | 55 | 0.0 | 0.0 | 0.00 | 0.00 | 0.00 | 95 | 1013.4 |
| 20260906140815 | 69 | 55 | 0.0 | 0.0 | 0.00 | 0.00 | 0.00 | 95 | 1013.5 |
| 20260906140314 | 69 | 162 | 0.0 | 0.0 | 0.00 | 0.00 | 0.00 | 95 | 1013.5 |
| 20260906135836 | 68 | 162 | 0.0 | 2.6 | 0.00 | 0.00 | 0.00 | 95 | 1013.5 |
| 20260906135352 | 68 | 286 | 0.9 | 4.3 | 0.00 | 0.00 | 0.00 | 95 | 1013.6 |
| 20260906134827 | 67 | 286 | 0.9 | 6.1 | 0.00 | 0.00 | 0.00 | 95 | 1013.6 |
| 20260906134343 | 66 | 269 | 4.3 | 6.1 | 0.00 | 0.00 | 0.00 | 94 | 1013.6 |
| 20260906133833 | 66 | 209 | 2.6 | 4.3 | 0.00 | 0.00 | 0.00 | 94 | 1013.8 |
| 20260906133350 | 66 | 209 | 1.7 | 4.3 | 0.00 | 0.00 | 0.00 | 95 | 1013.8 |
| 20260906132826 | 66 | 209 | 3.5 | 4.3 | 0.00 | 0.00 | 0.00 | 94 | 1013.8 |
| 20260906132321 | 66 | 209 | 3.5 | 5.2 | 0.00 | 0.00 | 0.00 | 94 | 1013.6 |
| 20260906131901 | 66 | 201 | 3.5 | 5.2 | 0.00 | 0.00 | 0.00 | 94 | 1013.6 |
| 20260906131333 | 66 | 160 | 2.6 | 3.5 | 0.00 | 0.00 | 0.00 | 95 | 1013.6 |
| 20260906130851 | 66 | 161 | 1.7 | 3.5 | 0.00 | 0.00 | 0.00 | 95 | 1013.4 |
| 20260906130327 | 66 | 126 | 2.6 | 3.5 | 0.00 | 0.00 | 0.00 | 95 | 1013.4 |
| 20260906125823 | 65 | 355 | 0.0 | 1.7 | 0.00 | 0.00 | 0.00 | 94 | 1013.4 |
| 20260906125322 | 65 | 355 | 0.0 | 1.7 | 0.00 | 0.00 | 0.00 | 95 | 1013.0 |
| 20260906124819 | 65 | 355 | 0.0 | 1.7 | 0.00 | 0.00 | 0.00 | 95 | 1013.0 |
| 20260906124336 | 65 | 355 | 0.0 | 0.9 | 0.00 | 0.00 | 0.00 | 94 | 1013.0 |
| 20260906123832 | 64 | 355 | 0.0 | 0.9 | 0.00 | 0.00 | 0.00 | 94 | 1012.9 |
| 20260906123329 | 64 | 355 | 0.0 | 0.9 | 0.00 | 0.00 | 0.00 | 94 | 1012.9 |
| 20260906122845 | 65 | 355 | 0.0 | 1.7 | 0.00 | 0.00 | 0.00 | 94 | 1012.9 |
| 20260906122320 | 64 | 355 | 0.9 | 3.5 | 0.00 | 0.00 | 0.00 | 94 | 1013.0 |
| 20260906121835 | 64 | 355 | 1.7 | 3.5 | 0.00 | 0.00 | 0.00 | 94 | 1013.0 |
| 20260906121332 | 64 | 355 | 0.9 | 3.5 | 0.00 | 0.00 | 0.00 | 94 | 1013.0 |
| 20260906120829 | 64 | 355 | 1.7 | 3.5 | 0.00 | 0.00 | 0.00 | 94 | 1013.3 |
| 20260906120329 | 64 | 355 | 0.9 | 3.5 | 0.00 | 0.00 | 0.00 | 94 | 1013.3 |
| 20260906115825 | 64 | 355 | 2.6 | 3.5 | 0.00 | 0.00 | 0.00 | 94 | 1013.3 |
| 20260906115321 | 64 | 136 | 0.0 | 3.5 | 0.00 | 0.00 | 0.00 | 94 | 1013.4 |
| 20260906114818 | 64 | 136 | 0.0 | 4.3 | 0.00 | 0.00 | 0.00 | 94 | 1013.4 |
| 20260906114336 | 64 | 136 | 2.6 | 4.3 | 0.00 | 0.00 | 0.00 | 93 | 1013.4 |
| 20260906113834 | 65 | 138 | 2.6 | 3.5 | 0.00 | 0.00 | 0.00 | 94 | 1012.9 |
| 20260906113332 | 65 | 360 | 0.9 | 2.6 | 0.00 | 0.00 | 0.00 | 94 | 1012.9 |
| 20260906112832 | 65 | 360 | 0.9 | 2.6 | 0.00 | 0.00 | 0.00 | 94 | 1012.9 |
| 20260906112329 | 65 | 360 | 0.9 | 4.3 | 0.00 | 0.00 | 0.00 | 93 | 1012.9 |
| 20260906111828 | 65 | 360 | 1.7 | 5.2 | 0.00 | 0.00 | 0.00 | 94 | 1012.9 |
| 20260906111326 | 65 | 360 | 4.3 | 5.2 | 0.00 | 0.00 | 0.00 | 94 | 1012.9 |
| 20260906110828 | 65 | 5 | 2.6 | 4.3 | 0.00 | 0.00 | 0.00 | 93 | 1013.0 |
| 20260906110325 | 65 | 63 | 1.7 | 4.3 | 0.00 | 0.00 | 0.00 | 94 | 1013.0 |
| 20260906105824 | 65 | 37 | 1.7 | 5.2 | 0.00 | 0.00 | 0.00 | 93 | 1013.0 |
| 20260906105326 | 64 | 5 | 2.6 | 8.7 | 0.00 | 0.00 | 0.00 | 93 | 1012.9 |
| 20260906104824 | 65 | 348 | 6.1 | 8.7 | 0.00 | 0.00 | 0.00 | 94 | 1012.9 |
| 20260906104322 | 64 | 355 | 5.2 | 6.1 | 0.00 | 0.00 | 0.00 | 93 | 1012.9 |
| 20260906103840 | 64 | 15 | 5.2 | 5.2 | 0.00 | 0.00 | 0.00 | 93 | 1013.0 |
| 20260906103317 | 64 | 15 | 4.3 | 5.2 | 0.00 | 0.00 | 0.00 | 93 | 1013.0 |
| 20260906102832 | 64 | 15 | 2.6 | 5.2 | 0.00 | 0.00 | 0.00 | 93 | 1013.0 |
| 20260906102328 | 64 | 15 | 2.6 | 5.2 | 0.00 | 0.00 | 0.00 | 93 | 1012.9 |
| 20260906101828 | 65 | 15 | 3.5 | 4.3 | 0.00 | 0.00 | 0.00 | 92 | 1012.9 |
| 20260906101328 | 65 | 355 | 3.5 | 4.3 | 0.00 | 0.00 | 0.00 | 93 | 1012.9 |
| 20260906100826 | 65 | 22 | 1.7 | 2.6 | 0.00 | 0.00 | 0.00 | 92 | 1012.8 |
| 20260906100322 | 65 | 22 | 0.9 | 3.5 | 0.00 | 0.00 | 0.00 | 92 | 1012.8 |
| 20260906095818 | 65 | 22 | 0.9 | 4.3 | 0.00 | 0.00 | 0.00 | 92 | 1012.8 |
| 20260906095314 | 65 | 22 | 2.6 | 3.5 | 0.00 | 0.00 | 0.00 | 93 | 1012.8 |
| 20260906094834 | 65 | 22 | 1.7 | 2.6 | 0.00 | 0.00 | 0.00 | 92 | 1012.8 |
| 20260906094331 | 65 | 22 | 0.9 | 4.3 | 0.00 | 0.00 | 0.00 | 92 | 1012.8 |
| 20260906093848 | 65 | 22 | 2.6 | 4.3 | 0.00 | 0.00 | 0.00 | 92 | 1012.8 |
| 20260906093347 | 65 | 22 | 2.6 | 5.2 | 0.00 | 0.00 | 0.00 | 92 | 1012.8 |
| 20260906092825 | 66 | 22 | 2.6 | 5.2 | 0.00 | 0.00 | 0.00 | 92 | 1012.8 |
| 20260906092321 | 66 | 22 | 2.6 | 6.1 | 0.00 | 0.00 | 0.00 | 92 | 1012.8 |
| 20260906091838 | 66 | 22 | 4.3 | 5.2 | 0.00 | 0.00 | 0.00 | 92 | 1012.8 |
| 20260906091332 | 66 | 30 | 2.6 | 5.2 | 0.00 | 0.00 | 0.00 | 92 | 1012.8 |
| 20260906090829 | 65 | 34 | 2.6 | 4.3 | 0.00 | 0.00 | 0.00 | 91 | 1013.1 |
| 20260906090326 | 65 | 34 | 3.5 | 4.3 | 0.00 | 0.00 | 0.00 | 91 | 1013.1 |
| 20260906085826 | 66 | 10 | 1.7 | 4.3 | 0.00 | 0.00 | 0.00 | 91 | 1013.1 |
| 20260906085327 | 66 | 46 | 2.6 | 4.3 | 0.00 | 0.00 | 0.00 | 91 | 1012.9 |
| 20260906084824 | 66 | 65 | 1.7 | 5.2 | 0.00 | 0.00 | 0.00 | 91 | 1012.9 |
| 20260906084344 | 66 | 40 | 2.6 | 5.2 | 0.00 | 0.00 | 0.00 | 91 | 1012.9 |
| 20260906083842 | 66 | 55 | 2.6 | 3.5 | 0.00 | 0.00 | 0.00 | 91 | 1012.9 |
| 20260906083332 | 66 | 55 | 1.7 | 4.3 | 0.00 | 0.00 | 0.00 | 91 | 1012.7 |
| 20260906082832 | 66 | 55 | 0.9 | 4.3 | 0.00 | 0.00 | 0.00 | 91 | 1012.7 |
| 20260906082348 | 66 | 50 | 2.6 | 4.3 | 0.00 | 0.00 | 0.00 | 91 | 1012.5 |
| 20260906081825 | 66 | 38 | 0.9 | 5.2 | 0.00 | 0.00 | 0.00 | 91 | 1012.5 |
| 20260906081323 | 66 | 38 | 2.6 | 5.2 | 0.00 | 0.00 | 0.00 | 91 | 1012.5 |
| 20260906080823 | 66 | 19 | 4.3 | 5.2 | 0.00 | 0.00 | 0.00 | 90 | 1012.4 |
| 20260906080343 | 67 | 5 | 4.3 | 5.2 | 0.00 | 0.00 | 0.00 | 90 | 1012.4 |
| 20260906075821 | 67 | 17 | 1.7 | 7.8 | 0.00 | 0.00 | 0.00 | 90 | 1012.4 |
| 20260906075342 | 67 | 28 | 3.5 | 8.7 | 0.00 | 0.00 | 0.00 | 91 | 1012.7 |
| 20260906074818 | 67 | 35 | 5.2 | 8.7 | 0.00 | 0.00 | 0.00 | 91 | 1012.7 |
| 20260906074355 | 66 | 33 | 3.5 | 4.3 | 0.00 | 0.00 | 0.00 | 90 | 1012.7 |
| 20260906073831 | 66 | 20 | 1.7 | 4.3 | 0.00 | 0.00 | 0.00 | 90 | 1012.7 |
| 20260906073328 | 66 | 20 | 2.6 | 4.3 | 0.00 | 0.00 | 0.00 | 90 | 1012.7 |
| 20260906072825 | 66 | 5 | 1.7 | 6.1 | 0.00 | 0.00 | 0.00 | 89 | 1012.7 |
| 20260906072321 | 67 | 5 | 3.5 | 6.1 | 0.00 | 0.00 | 0.00 | 89 | 1012.8 |
| 20260906071837 | 67 | 17 | 3.5 | 4.3 | 0.00 | 0.00 | 0.00 | 89 | 1012.8 |
| 20260906071354 | 67 | 28 | 4.3 | 4.3 | 0.00 | 0.00 | 0.00 | 88 | 1012.8 |
| 20260906070829 | 67 | 40 | 1.7 | 3.5 | 0.00 | 0.00 | 0.00 | 88 | 1012.7 |
| 20260906070325 | 67 | 36 | 2.6 | 4.3 | 0.00 | 0.00 | 0.00 | 88 | 1012.7 |
| 20260906065822 | 67 | 26 | 2.6 | 4.3 | 0.00 | 0.00 | 0.00 | 88 | 1012.7 |
| 20260906065319 | 68 | 37 | 1.7 | 3.5 | 0.00 | 0.00 | 0.00 | 88 | 1012.7 |
| 20260906064903 | 68 | 58 | 1.7 | 3.5 | 0.00 | 0.00 | 0.00 | 87 | 1012.7 |
| 20260906064333 | 68 | 58 | 1.7 | 3.5 | 0.00 | 0.00 | 0.00 | 87 | 1012.7 |
| 20260906063849 | 68 | 58 | 2.6 | 5.2 | 0.00 | 0.00 | 0.00 | 87 | 1012.9 |
| 20260906063330 | 68 | 50 | 3.5 | 5.2 | 0.00 | 0.00 | 0.00 | 87 | 1012.9 |
| 20260906062827 | 68 | 51 | 2.6 | 3.5 | 0.00 | 0.00 | 0.00 | 86 | 1012.9 |
| 20260906062322 | 68 | 51 | 2.6 | 3.5 | 0.00 | 0.00 | 0.00 | 86 | 1013.1 |
| 20260906061819 | 69 | 29 | 1.7 | 5.2 | 0.00 | 0.00 | 0.00 | 86 | 1013.1 |
| 20260906061356 | 69 | 28 | 2.6 | 5.2 | 0.00 | 0.00 | 0.00 | 86 | 1013.1 |
| 20260906060852 | 69 | 38 | 4.3 | 10.4 | 0.00 | 0.00 | 0.00 | 86 | 1012.7 |
| 20260906060328 | 69 | 42 | 6.1 | 10.4 | 0.00 | 0.00 | 0.00 | 86 | 1012.7 |
| 20260906055827 | 68 | 5 | 6.1 | 8.7 | 0.00 | 0.00 | 0.00 | 85 | 1012.7 |
| 20260906055324 | 68 | 5 | 6.1 | 7.8 | 0.00 | 0.00 | 0.00 | 85 | 1012.7 |
| 20260906054841 | 68 | 355 | 5.2 | 7.8 | 0.00 | 0.00 | 0.00 | 85 | 1012.7 |
| 20260906054320 | 68 | 355 | 4.3 | 6.1 | 0.00 | 0.00 | 0.00 | 84 | 1012.7 |
| 20260906053819 | 68 | 9 | 4.3 | 5.2 | 0.00 | 0.00 | 0.00 | 83 | 1012.8 |
| 20260906053316 | 68 | 9 | 1.7 | 4.3 | 0.00 | 0.00 | 0.00 | 81 | 1012.8 |
| 20260906052833 | 69 | 9 | 0.9 | 4.3 | 0.00 | 0.00 | 0.00 | 81 | 1012.8 |
| 20260906052329 | 69 | 9 | 1.7 | 4.3 | 0.00 | 0.00 | 0.00 | 80 | 1012.8 |
| 20260906051825 | 69 | 355 | 2.6 | 4.3 | 0.00 | 0.00 | 0.00 | 79 | 1012.8 |
| 20260906051322 | 69 | 12 | 2.6 | 4.3 | 0.00 | 0.00 | 0.00 | 79 | 1012.8 |
| 20260906050819 | 70 | 32 | 2.6 | 3.5 | 0.00 | 0.00 | 0.00 | 79 | 1012.7 |
| 20260906050356 | 70 | 32 | 1.7 | 2.6 | 0.00 | 0.00 | 0.00 | 78 | 1012.7 |
| 20260906045825 | 70 | 32 | 1.7 | 2.6 | 0.00 | 0.00 | 0.00 | 77 | 1012.7 |
| 20260906045322 | 70 | 32 | 1.7 | 2.6 | 0.00 | 0.00 | 0.00 | 77 | 1012.7 |
| 20260906044818 | 70 | 32 | 1.7 | 3.5 | 0.00 | 0.00 | 0.00 | 77 | 1012.7 |
| 20260906044356 | 70 | 32 | 1.7 | 3.5 | 0.00 | 0.00 | 0.00 | 77 | 1012.7 |
| 20260906043853 | 70 | 32 | 1.7 | 2.6 | 0.00 | 0.00 | 0.00 | 76 | 1012.8 |
| 20260906043329 | 70 | 32 | 0.9 | 2.6 | 0.00 | 0.00 | 0.00 | 76 | 1012.8 |
| 20260906042828 | 70 | 32 | 0.9 | 2.6 | 0.00 | 0.00 | 0.00 | 76 | 1012.8 |
| 20260906042324 | 70 | 32 | 1.7 | 2.6 | 0.00 | 0.00 | 0.00 | 76 | 1012.7 |
| 20260906041820 | 70 | 32 | 0.9 | 3.5 | 0.00 | 0.00 | 0.00 | 76 | 1012.7 |
| 20260906041337 | 70 | 32 | 0.9 | 5.2 | 0.00 | 0.00 | 0.00 | 76 | 1012.7 |
| 20260906040833 | 70 | 9 | 3.5 | 6.1 | 0.00 | 0.00 | 0.00 | 76 | 1012.7 |
| 20260906040330 | 70 | 11 | 4.3 | 6.1 | 0.00 | 0.00 | 0.00 | 75 | 1012.7 |
| 20260906035827 | 71 | 360 | 5.2 | 7.0 | 0.00 | 0.00 | 0.00 | 74 | 1012.7 |
| 20260906035324 | 71 | 360 | 4.3 | 7.0 | 0.00 | 0.00 | 0.00 | 73 | 1012.5 |
| 20260906034840 | 71 | 355 | 4.3 | 5.2 | 0.00 | 0.00 | 0.00 | 73 | 1012.5 |
| 20260906034357 | 72 | 34 | 2.6 | 4.3 | 0.00 | 0.00 | 0.00 | 72 | 1012.5 |
| 20260906033852 | 72 | 34 | 2.6 | 3.5 | 0.00 | 0.00 | 0.00 | 72 | 1012.1 |
| 20260906033328 | 72 | 34 | 0.9 | 1.7 | 0.00 | 0.00 | 0.00 | 72 | 1012.1 |
| 20260906032826 | 73 | 34 | 0.9 | 2.6 | 0.00 | 0.00 | 0.00 | 71 | 1012.1 |
| 20260906032322 | 73 | 34 | 0.0 | 3.5 | 0.00 | 0.00 | 0.00 | 71 | 1011.9 |
| 20260906031840 | 73 | 34 | 0.9 | 3.5 | 0.00 | 0.00 | 0.00 | 70 | 1011.9 |
| 20260906031336 | 73 | 34 | 0.9 | 2.6 | 0.00 | 0.00 | 0.00 | 71 | 1011.9 |
| 20260906030832 | 74 | 34 | 0.9 | 2.6 | 0.00 | 0.00 | 0.00 | 71 | 1011.8 |
| 20260906030329 | 74 | 34 | 0.9 | 2.6 | 0.00 | 0.00 | 0.00 | 71 | 1011.8 |
| 20260906025829 | 74 | 79 | 1.7 | 3.5 | 0.00 | 0.00 | 0.00 | 71 | 1011.8 |
| 20260906025329 | 74 | 79 | 1.7 | 3.5 | 0.00 | 0.00 | 0.00 | 71 | 1011.7 |
| 20260906024826 | 75 | 79 | 1.7 | 4.3 | 0.00 | 0.00 | 0.00 | 71 | 1011.7 |
| 20260906024327 | 75 | 79 | 1.7 | 4.3 | 0.00 | 0.00 | 0.00 | 71 | 1011.7 |
| 20260906023822 | 75 | 48 | 1.7 | 4.3 | 0.00 | 0.00 | 0.00 | 70 | 1011.3 |
| 20260906023319 | 75 | 54 | 2.6 | 4.3 | 0.00 | 0.00 | 0.00 | 70 | 1011.3 |
| 20260906022833 | 76 | 55 | 2.6 | 5.2 | 0.00 | 0.00 | 0.00 | 71 | 1011.3 |
| 20260906022349 | 76 | 78 | 3.5 | 5.2 | 0.00 | 0.00 | 0.00 | 71 | 1011.1 |
| 20260906021828 | 76 | 104 | 1.7 | 4.3 | 0.00 | 0.00 | 0.00 | 71 | 1011.1 |
| 20260906021325 | 77 | 76 | 2.6 | 4.3 | 0.00 | 0.00 | 0.00 | 70 | 1011.1 |
| 20260906020842 | 78 | 76 | 1.7 | 3.5 | 0.00 | 0.00 | 0.00 | 69 | 1011.1 |
| 20260906020335 | 78 | 76 | 1.7 | 6.1 | 0.00 | 0.00 | 0.00 | 67 | 1010.8 |
| 20260906015833 | 79 | 73 | 3.5 | 4.3 | 0.00 | 0.00 | 0.00 | 66 | 1010.8 |
| 20260906015350 | 80 | 79 | 2.6 | 3.5 | 0.00 | 0.00 | 0.00 | 65 | 1010.6 |
| 20260906014829 | 80 | 79 | 0.9 | 1.7 | 0.00 | 0.00 | 0.00 | 64 | 1010.6 |
| 20260906014327 | 81 | 79 | 0.0 | 0.0 | 0.00 | 0.00 | 0.00 | 63 | 1010.6 |
| 20260906013824 | 81 | 79 | 0.0 | 0.9 | 0.00 | 0.00 | 0.00 | 61 | 1010.4 |
| 20260906013322 | 82 | 79 | 0.0 | 0.9 | 0.00 | 0.00 | 0.00 | 61 | 1010.4 |
| 20260906012843 | 82 | 79 | 0.0 | 0.0 | 0.00 | 0.00 | 0.00 | 61 | 1010.4 |
| 20260906012335 | 82 | 79 | 0.0 | 0.0 | 0.00 | 0.00 | 0.00 | 60 | 1010.5 |
| 20260906011830 | 83 | 79 | 0.0 | 0.0 | 0.00 | 0.00 | 0.00 | 59 | 1010.5 |
| 20260906011328 | 83 | 79 | 0.0 | 0.0 | 0.00 | 0.00 | 0.00 | 58 | 1010.5 |
| 20260906010828 | 84 | 79 | 0.0 | 0.0 | 0.00 | 0.00 | 0.00 | 57 | 1010.3 |
| 20260906010324 | 85 | 79 | 0.0 | 0.0 | 0.00 | 0.00 | 0.00 | 56 | 1010.3 |
| 20260906005821 | 85 | 94 | 0.0 | 0.0 | 0.00 | 0.00 | 0.00 | 55 | 1010.3 |
| 20260906005336 | 86 | 102 | 0.0 | 0.0 | 0.00 | 0.00 | 0.00 | 55 | 1010.3 |
| 20260906004833 | 86 | 72 | 0.0 | 0.0 | 0.00 | 0.00 | 0.00 | 54 | 1010.3 |
| 20260906004330 | 86 | 94 | 0.0 | 0.0 | 0.00 | 0.00 | 0.00 | 54 | 1010.3 |
| 20260906003827 | 87 | 67 | 0.0 | 0.0 | 0.00 | 0.00 | 0.00 | 54 | 1010.3 |
| 20260906003345 | 87 | 75 | 0.0 | 0.0 | 0.00 | 0.00 | 0.00 | 54 | 1010.3 |
| 20260906002822 | 88 | 75 | 0.0 | 0.0 | 0.00 | 0.00 | 0.00 | 52 | 1010.3 |
| 20260906002401 | 89 | 104 | 0.0 | 0.0 | 0.00 | 0.00 | 0.00 | 51 | 1010.3 |
| 20260906001833 | 89 | 78 | 0.0 | 0.0 | 0.00 | 0.00 | 0.00 | 50 | 1010.3 |
| 20260906001333 | 90 | 75 | 0.0 | 0.0 | 0.00 | 0.00 | 0.00 | 49 | 1010.3 |
| 20260906000830 | 90 | 66 | 0.0 | 0.0 | 0.00 | 0.00 | 0.00 | 48 | 1010.0 |
| 20260906000344 | 91 | 104 | 0.0 | 0.0 | 0.00 | 0.00 | 0.00 | 46 | 1010.0 |
| 20260905235820 | 92 | 94 | 0.0 | 0.0 | 0.00 | 0.00 | 0.00 | 43 | 1010.0 |
| 20260905235317 | 92 | 93 | 0.0 | 0.0 | 0.00 | 0.00 | 0.00 | 42 | 1009.8 |
| 20260905234856 | 93 | 99 | 0.0 | 0.0 | 0.00 | 0.00 | 0.00 | 42 | 1009.8 |
| 20260905234334 | 93 | 62 | 0.0 | 0.0 | 0.00 | 0.00 | 0.00 | 41 | 1009.8 |
| 20260905233831 | 93 | 63 | 0.0 | 0.0 | 0.00 | 0.00 | 0.00 | 41 | 1009.7 |
| 20260905233329 | 93 | 64 | 0.0 | 0.0 | 0.00 | 0.00 | 0.00 | 41 | 1009.7 |
| 20260905232848 | 93 | 77 | 0.0 | 0.0 | 0.00 | 0.00 | 0.00 | 40 | 1009.7 |
| 20260905232328 | 93 | 65 | 0.0 | 0.0 | 0.00 | 0.00 | 0.00 | 40 | 1009.4 |
| 20260905231825 | 94 | 92 | 0.0 | 0.0 | 0.00 | 0.00 | 0.00 | 40 | 1009.4 |
| 20260905231325 | 95 | 96 | 0.0 | 0.0 | 0.00 | 0.00 | 0.00 | 39 | 1009.4 |
| 20260905230843 | 95 | 60 | 0.0 | 0.0 | 0.00 | 0.00 | 0.00 | 39 | 1009.4 |
| 20260905230335 | 95 | 96 | 0.0 | 0.0 | 0.00 | 0.00 | 0.00 | 39 | 1009.2 |
| 20260905225834 | 95 | 97 | 0.0 | 0.0 | 0.00 | 0.00 | 0.00 | 39 | 1009.2 |
| 20260905225330 | 95 | 70 | 0.0 | 0.0 | 0.00 | 0.00 | 0.00 | 39 | 1009.0 |
| 20260905224828 | 96 | 72 | 0.0 | 0.0 | 0.00 | 0.00 | 0.00 | 38 | 1009.0 |
| 20260905224326 | 96 | 88 | 0.0 | 0.0 | 0.00 | 0.00 | 0.00 | 38 | 1009.0 |
| 20260905223824 | 96 | 98 | 0.0 | 0.0 | 0.00 | 0.00 | 0.00 | 38 | 1008.7 |
| 20260905223344 | 97 | 73 | 0.0 | 0.0 | 0.00 | 0.00 | 0.00 | 37 | 1008.7 |
| 20260905222821 | 97 | 139 | 0.0 | 0.0 | 0.00 | 0.00 | 0.00 | 37 | 1008.7 |
| 20260905222321 | 97 | 151 | 0.0 | 0.0 | 0.00 | 0.00 | 0.00 | 37 | 1008.7 |
| 20260905221854 | 96 | 96 | 0.0 | 0.0 | 0.00 | 0.00 | 0.00 | 37 | 1008.7 |
| 20260905221331 | 96 | 130 | 0.0 | 0.0 | 0.00 | 0.00 | 0.00 | 38 | 1008.7 |
| 20260905220845 | 96 | 119 | 0.0 | 0.0 | 0.00 | 0.00 | 0.00 | 38 | 1009.2 |
| 20260905220337 | 96 | 126 | 0.0 | 0.0 | 0.00 | 0.00 | 0.00 | 38 | 1009.2 |
| 20260905215830 | 95 | 107 | 0.0 | 0.0 | 0.00 | 0.00 | 0.00 | 38 | 1009.2 |
| 20260905215328 | 95 | 69 | 0.0 | 0.0 | 0.00 | 0.00 | 0.00 | 38 | 1009.3 |
| 20260905214823 | 95 | 122 | 0.0 | 0.0 | 0.00 | 0.00 | 0.00 | 37 | 1009.3 |
| 20260905214320 | 96 | 82 | 0.0 | 0.0 | 0.00 | 0.00 | 0.00 | 38 | 1009.3 |
| 20260905213855 | 95 | 94 | 0.0 | 0.0 | 0.00 | 0.00 | 0.00 | 38 | 1009.5 |
| 20260905213330 | 96 | 75 | 0.0 | 0.0 | 0.00 | 0.00 | 0.00 | 38 | 1009.5 |
| 20260905212846 | 96 | 60 | 0.0 | 0.0 | 0.00 | 0.00 | 0.00 | 38 | 1009.5 |
| 20260905212353 | 95 | 120 | 0.0 | 0.0 | 0.00 | 0.00 | 0.00 | 38 | 1009.7 |
| 20260905211826 | 95 | 62 | 0.0 | 0.0 | 0.00 | 0.00 | 0.00 | 38 | 1009.7 |
| 20260905211323 | 95 | 101 | 0.0 | 0.0 | 0.00 | 0.00 | 0.00 | 39 | 1009.7 |